Location: Donzy-le-Pr�
(47.3659°N, 3.1107°E)
Time: 04:43:13
(UTC+00:00)

CZ-4B R/B - Pass Details

Date: 03 March 2021
Orbit: 388 x 454 km, 97.6° (Epoch: 22 April)

Event Time Altitude Azimuth Distance (km) Brightness Sun altitude
Rises 18:38:53 0° 3° (N) 2,294 5.0 -11.5°
Reaches altitude 10° 18:40:58 10° 353° (N) 1,436 4.1 -11.8°
Maximum altitude 18:43:41 30° 290° (WNW) 744 3.3 -12.3°
Drops below altitude 10° 18:46:25 10° 227° (SW) 1,439 4.6 -12.7°
Sets 18:48:31 0° 216° (SW) 2,301 5.5 -13.1°
